User: anonymous   Login
Location: Lamoine Observatory
(44.4551°N, 68.3470°W)
Time: 04:32:03
(UTC-04:00)
Language:

Cosmos 1674 Rocket - Orbit

View from above orbital plane
View from above orbital plane
View from above satellite
View from above satellite

Ground track
Ground track

The orbit data is extracted from the following two-line orbital elements,

1 15945U 85069B   14296.66138148  .00000702  00000-0  82398-4 0  8005
2 15945 082.5259 318.9173 0018994 230.7092 268.9451 14.83443020577567
Epoch (UTC): 23 October 2014 15:52:23
Eccentricity: 0.0018994
inclination: 82.5259°
perigee height: 605 km
apogee height: 632 km
right ascension of ascending node: 318.9173°
argument of perigee: 230.7092°
revolutions per day: 14.83443020
mean anomaly at epoch: 268.9451°
orbit number at epoch: 57756

The dashed part of the orbit path shows where the satellite is in the earth's shadow,  

DLR